カタログに戻る

FALCON 9 R/B

運用中GTO
NORAD 55684·ROCKET BODY·🇺🇸 United States

打ち上げ Feb 18, 2023 から Cape Canaveral Space Force Station

Loading…

TLE

経年Source: Space-Track

元期: Sep 14, 2026, 04:46 UTC

1 55684U 23022B   26257.19916786  .00031731  00000-0  27638-2 0  9999
2 55684  26.8087 309.1357 7198182 217.5427  59.0428  2.41120631 28326

AllMySatでFALCON 9 R/Bをリアルタイム追跡

Download on the App Store